This is the latest recevied weather packets stored in our database for station/object KO4LCK. If no packets are shown the sender has not sent any weather packets the latest 10 day(s).
| Time | Temp. | Humidity | Pressure | Rain* | Wind** | Luminosity | Snow |
|---|---|---|---|---|---|---|---|
| 1788307675 | 30° C | 61% | 1018.3 hPa | 0 mm | - | 2 W/m² | - |
| 1788307370 | 30° C | 61% | 1018.7 hPa | 0 mm | - | 4 W/m² | - |
| 1788307070 | 30.56° C | 61% | 1018.7 hPa | 0 mm | - | 7 W/m² | - |
| 1788306765 | 30.56° C | 62% | 1018.5 hPa | 0 mm | - | 10 W/m² | - |
| 1788306464 | 30.56° C | 62% | 1018.6 hPa | 0 mm | - | 13 W/m² | - |
| 1788306159 | 31.11° C | 60% | 1018.4 hPa | 0 mm | - | 16 W/m² | - |
| 1788305854 | 31.67° C | 60% | 1018.7 hPa | 0 mm | - | 20 W/m² | - |
| 1788305550 | 31.67° C | 58% | 1018.5 hPa | 0 mm | - | 23 W/m² | - |
| 1788305250 | 32.22° C | 57% | 1018.7 hPa | 0 mm | - | 26 W/m² | - |
| 1788304945 | 32.22° C | 55% | 1018.9 hPa | 0 mm | - | 30 W/m² | - |
| 1788304642 | 32.78° C | 53% | 1018.7 hPa | 0 mm | - | 32 W/m² | - |
| 1788304338 | 32.78° C | 53% | 1018.8 hPa | 0 mm | - | 35 W/m² | - |
| 1788304033 | 33.33° C | 49% | 1018.7 hPa | 0 mm | - | 38 W/m² | - |
| 1788303733 | 33.33° C | 50% | 1018.8 hPa | 0 mm | - | 40 W/m² | - |
| 1788303428 | 33.89° C | 47% | 1018.8 hPa | 0 mm | - | 43 W/m² | - |
| 1788303138 | 33.89° C | 47% | 1018.6 hPa | 0 mm | - | 46 W/m² | - |
| 1788302819 | 33.89° C | 46% | 1018.6 hPa | 0 mm | - | 49 W/m² | - |
| 1788302514 | 34.44° C | 45% | 1018.7 hPa | 0 mm | - | 51 W/m² | - |
| 1788302210 | 35° C | 44% | 1018.4 hPa | 0 mm | - | 53 W/m² | - |
| 1788301905 | 35° C | 44% | 1018.4 hPa | 0 mm | - | 119 W/m² | - |
| 1788301601 | 35° C | 43% | 1018.5 hPa | 0 mm | - | 151 W/m² | - |
| 1788301297 | 35° C | 42% | 1018.5 hPa | 0 mm | - | 163 W/m² | - |
| 1788300993 | 35.56° C | 43% | 1018.5 hPa | 0 mm | - | 181 W/m² | - |
| 1788300689 | 35° C | 44% | 1018.5 hPa | 0 mm | - | 197 W/m² | - |
| 1788300387 | 35° C | 44% | 1018.4 hPa | 0 mm | - | 211 W/m² | - |
* Rain latest hour (hover to see other rain measurements)
** Current wind speed in m/s (hover to see current wind gust speed)